Weather History for Milton, FL

Change the Weather History Date:

Monday, July 1, 2013

  Actual Average (KNSE) Record (KNSE)
Temperature  
Mean Temperature 80 °F -  
Max Temperature 90 °F 86 °F 98 °F (2011)
Min Temperature 70 °F 69 °F 64 °F (2008)
Cooling Degree Days 14    
Growing Degree Days 30 (Base 50)    
Moisture  
Dew Point 67 °F    
Average Humidity 67    
Maximum Humidity 90    
Minimum Humidity 42    
Precipitation  
Precipitation 0.00 in - - ()
Sea Level Pressure  
Sea Level Pressure 29.78 in    
Wind  
Wind Speed 2 mph (WNW)    
Max Wind Speed 9 mph    
Max Gust Speed -    
Visibility 10 miles    
Events      
Averages and records for this station are not official NWS values.
T = Trace of Precipitation, MM = Missing Value Source: NWS Daily Summary

Daily Weather History Graph

Daily Weather History Graph

Search for Another Location

Airport:

Trip Planner

Search our weather history database for the weather conditions in past years. The results will help you decide how hot, cold, wet, or windy it might be!

Date:

Astronomy

Jul. 01, 2013 Rise Set
Actual Time 5:48 AM CDT 7:54 PM CDT
Civil Twilight 5:21 AM CDT 8:22 PM CDT
Nautical Twilight 4:47 AM CDT 8:56 PM CDT
Astronomical Twilight 4:11 AM CDT 9:32 PM CDT
Moon 1:03 AM CDT (7/1) 2:22 PM CDT (7/1)
Length of Visible Light 15h 01m
Length of Day
14h 05m
Waning Crescent, 35% of the Moon is Illuminated
Jul 1
Waning Crescent
Jul 8
New
Jul 15
First Quarter
Jul 22
Full
Jul 29
Last Quarter

Hourly Weather History & Observations

Time (CDT) Temp. Heat Index Dew Point Humidity Pressure Visibility Wind Dir Wind Speed Gust Speed Precip Events Conditions
12:56 AM 71.1 °F - 66.9 °F 87% 29.73 in 10.0 mi Calm Calm - N/A   Scattered Clouds
1:56 AM 72.0 °F - 66.9 °F 84% 29.73 in 10.0 mi Calm Calm - N/A   Clear
2:56 AM 70.0 °F - 66.9 °F 90% 29.73 in 10.0 mi Calm Calm - N/A   Mostly Cloudy
3:56 AM 73.0 °F - 68.0 °F 84% 29.73 in 10.0 mi ESE 3.5 mph - N/A   Scattered Clouds
4:56 AM 73.9 °F - 69.1 °F 85% 29.75 in 10.0 mi Calm Calm - N/A   Mostly Cloudy
5:56 AM 72.0 °F - 66.0 °F 81% 29.75 in 10.0 mi SE 9.2 mph - 0.00 in   Mostly Cloudy
6:56 AM 73.9 °F - 70.0 °F 87% 29.76 in 10.0 mi Calm Calm - N/A   Overcast
7:56 AM 75.9 °F - 69.1 °F 79% 29.78 in 10.0 mi Calm Calm - N/A   Mostly Cloudy
8:56 AM 81.0 °F 85.2 °F 72.0 °F 74% 29.78 in 10.0 mi NW 3.5 mph - N/A   Clear
9:56 AM 84.0 °F 89.6 °F 72.0 °F 67% 29.79 in 10.0 mi Variable 4.6 mph - N/A   Clear
10:56 AM 86.0 °F 89.4 °F 68.0 °F 55% 29.81 in 10.0 mi Variable 4.6 mph - N/A   Clear
11:56 AM 87.1 °F 89.9 °F 66.9 °F 51% 29.80 in 10.0 mi Variable 5.8 mph - N/A   Scattered Clouds
12:56 PM 88.0 °F 89.6 °F 64.9 °F 46% 29.79 in 10.0 mi NNW 5.8 mph - N/A   Partly Cloudy
1:56 PM 87.1 °F 88.9 °F 64.9 °F 48% 29.77 in 10.0 mi NW 4.6 mph - N/A   Mostly Cloudy
2:56 PM 89.1 °F 91.0 °F 64.9 °F 45% 29.77 in 10.0 mi NW 5.8 mph - N/A   Partly Cloudy
3:56 PM 88.0 °F 89.3 °F 64.0 °F 45% 29.78 in 10.0 mi Calm Calm - N/A   Partly Cloudy
4:56 PM 88.0 °F 88.4 °F 62.1 °F 42% 29.77 in 10.0 mi Calm Calm - N/A   Scattered Clouds
5:56 PM 88.0 °F 88.7 °F 63.0 °F 43% 29.77 in 10.0 mi Calm Calm - N/A   Clear
6:56 PM 84.9 °F 86.6 °F 64.9 °F 51% 29.80 in 10.0 mi Calm Calm - N/A   Partly Cloudy
7:56 PM 81.0 °F 83.0 °F 66.0 °F 60% 29.82 in 10.0 mi South 3.5 mph - N/A   Clear
8:56 PM 80.1 °F 82.7 °F 68.0 °F 67% 29.83 in 10.0 mi Calm Calm - N/A   Mostly Cloudy
9:56 PM 79.0 °F - 68.0 °F 69% 29.85 in 10.0 mi Calm Calm - N/A   Clear
10:56 PM 77.0 °F - 68.0 °F 74% 29.85 in 10.0 mi WNW 3.5 mph - N/A   Clear
11:56 PM 73.9 °F - 68.0 °F 82% 29.86 in 10.0 mi Calm Calm - N/A   Clear